User: anonymous   Login
Location: Cutler
(25.6150°N, 80.3110°W)
Time: 06:49:15
(UTC-05:00)
Language:

Vanguard 2 - Orbit

View from above orbital plane
View from above orbital plane
View from above satellite
View from above satellite

Ground track
Ground track

The orbit data is extracted from the following two-line orbital elements,

1 00011U 59001A   18055.22680042  .00000096  00000-0  41174-4 0  9996
2 00011  32.8704 344.5712 1468291 166.2420 198.3066 11.85539907516492
Epoch (UTC): 24 February 2018 05:26:35
Eccentricity: 0.1468291
inclination: 32.8704°
perigee height: 553 km
apogee height: 2939 km
right ascension of ascending node: 344.5712°
argument of perigee: 166.2420°
revolutions per day: 11.85539907
mean anomaly at epoch: 198.3066°
orbit number at epoch: 51649

The dashed part of the orbit path shows where the satellite is in the earth's shadow,  

DLR